ELECTRON DEB (44639 NORAD) Tracking and Keplerian Element Data
This shows tracking and keplerian element data for the satellite.
Feedback or suggestion? Click here.
Element | Value |
Catalog | 44639 |
Name | ELECTRON DEB |
Epoch Orbit | 32 |
Epoch Day | 293.27634399 |
Epoch Year | 2019 |
RAAN | 42.7279 |
Inclination | 87.8939 |
Eccentricity | 0.0607391 |
Argument of Perigee | 262.61 |
Mean Anonmoly | 90.4886 |
Mean Motion | 14.44727028 |
Decay Rate | 0.00617699 |
L1 | 1 44639U 19069D 19293.27634399 .00617699 00000-0 14085-1 0 9995 |
L2 | 2 44639 87.8939 42.7279 0607391 262.6100 90.4886 14.44727028 325 |
Live tracking and technical data element details for ELECTRON DEB (NORAD 44639). ELECTRON DEB can be tracked NOW for your location showing map with azimuth and elevation plus other details from your city location.
Track the satellite on the map from your city or location and see movement details for azimuth, elevation, latitude, longitude, range, height, and movement on the map or in text.
IsCatalogInMostPopularTable: catalog: 44639, numindb: 8
Update: records affected: 1
GetName: 44639 ELECTRON DEB
Hit Count: updated at: Thu, 12 Dec 2019 01:37:32 GMT